Location: Betzi
(47.2343°N, 9.5260°E)
Time: 22:54:25
(UTC+00:00)

Cosmos 2219 Rocket - Pass Details

Date: 27 May 2022
Orbit: 827 x 847 km, 71.0° (Epoch: 26 June)

Event Time Altitude Azimuth Distance (km) Brightness Sun altitude
Exits shadow 00:26:41 12° 258° (WSW) 2,276 4.2 -19.8°
Maximum altitude 00:30:51 27° 312° (NW) 1,547 3.8 -19.6°
Drops below altitude 10° 00:35:35 10° 10° (N) 2,447 5.8 -19.4°
Sets 00:38:25 0° 22° (NNE) 3,387 7.0 -19.2°
